NOZ1863 LIPE-ENGM

Flight info

Callsign NOZ1863
Flight time 2h 40m
Altitude 36000
Route LUMAV L12 VIC DCT ROKIB DCT GIKEB DCT EKPEB DCT BRENO DCT KONIN DCT KEMES DCT ANELA M726 LASGA DCT EMBOX DCT BUMIL DCT BAGOS DCT ADSEN/N0436F370 DCT SABAK/N0433F360 DCT XENTA DCT REGMA DCT LUNIP
Aircraft B738/M-SDE2E3GHILRWXY/LB1

Departure

Time 2026-04-30 09:25
Airport Bologna Guglielmo Marconi Airport (LIPE)

Arrival

Time 2026-04-30 12:05
Airport Oslo-Gardermoen International Airport (ENGM)
Time Latitude Longitude Altitude Speed Heading
2026-04-30 09:04 44.53033 11.29213 129 ft 0 kts 116°
2026-04-30 09:15 44.53040 11.29195 129 ft 4 kts 117°
2026-04-30 09:15 44.53052 11.29161 125 ft 4 kts 113°
2026-04-30 09:16 44.53060 11.29133 129 ft 4 kts 101°
2026-04-30 09:16 44.53055 11.29105 129 ft 4 kts 33°
2026-04-30 09:16 44.53053 11.29103 129 ft 2 kts 27°
2026-04-30 09:16 44.53055 11.29104 127 ft 0 kts 27°
2026-04-30 09:18 44.53056 11.29104 125 ft 0 kts 27°
2026-04-30 09:19 44.53066 11.29112 129 ft 3 kts 27°
2026-04-30 09:19 44.53089 11.29128 128 ft 6 kts 26°
2026-04-30 09:19 44.53149 11.29170 126 ft 12 kts 26°
2026-04-30 09:19 44.53224 11.29223 126 ft 12 kts 27°
2026-04-30 09:20 44.53258 11.29221 126 ft 4 kts 283°
2026-04-30 09:20 44.53259 11.29114 128 ft 17 kts 289°
2026-04-30 09:20 44.53312 11.28963 125 ft 17 kts 297°
2026-04-30 09:20 44.53366 11.28815 125 ft 16 kts 297°
2026-04-30 09:21 44.53415 11.28676 127 ft 16 kts 296°
2026-04-30 09:21 44.53465 11.28538 124 ft 16 kts 297°
2026-04-30 09:21 44.53518 11.28392 125 ft 18 kts 297°
2026-04-30 09:21 44.53576 11.28229 129 ft 19 kts 296°
2026-04-30 09:22 44.53637 11.28060 129 ft 19 kts 297°
2026-04-30 09:22 44.53696 11.27896 125 ft 18 kts 297°
2026-04-30 09:22 44.53753 11.27738 124 ft 18 kts 297°
2026-04-30 09:22 44.53808 11.27585 128 ft 17 kts 297°
2026-04-30 09:23 44.53862 11.27437 126 ft 17 kts 297°
2026-04-30 09:23 44.53930 11.27314 134 ft 16 kts 327°
2026-04-30 09:23 44.54020 11.27232 127 ft 15 kts 327°
2026-04-30 09:23 44.54107 11.27262 132 ft 14 kts 69°
2026-04-30 09:24 44.54070 11.27406 128 ft 29 kts 117°
2026-04-30 09:24 44.53875 11.27946 125 ft 93 kts 117°
2026-04-30 09:24 44.53500 11.28994 125 ft 145 kts 116°
2026-04-30 09:24 44.53001 11.30355 479 ft 159 kts 116°
2026-04-30 09:25 44.52530 11.31759 1119 ft 161 kts 106°
2026-04-30 09:25 44.52651 11.33370 1353 ft 184 kts 56°
2026-04-30 09:25 44.53750 11.34352 1798 ft 197 kts 18°
2026-04-30 09:25 44.55066 11.34936 2327 ft 198 kts 22°
2026-04-30 09:26 44.56335 11.35629 2867 ft 198 kts 24°
2026-04-30 09:26 44.57627 11.36441 3250 ft 208 kts 27°
2026-04-30 09:26 44.58934 11.37355 3782 ft 211 kts 28°
2026-04-30 09:26 44.60230 11.38335 4388 ft 213 kts 29°
2026-04-30 09:27 44.61526 11.39348 4966 ft 214 kts 30°
2026-04-30 09:27 44.62825 11.40388 5585 ft 216 kts 30°
2026-04-30 09:27 44.64136 11.41451 6162 ft 219 kts 30°
2026-04-30 09:27 44.65448 11.42620 6557 ft 233 kts 38°
2026-04-30 09:28 44.66759 11.44142 6773 ft 254 kts 40°
2026-04-30 09:28 44.68126 11.45793 7244 ft 263 kts 40°
2026-04-30 09:28 44.69522 11.47473 7899 ft 265 kts 40°
2026-04-30 09:28 44.70936 11.49165 8580 ft 268 kts 40°
2026-04-30 09:29 44.72356 11.50862 9291 ft 269 kts 40°
2026-04-30 09:29 44.73789 11.52571 10000 ft 270 kts 39°
2026-04-30 09:29 44.75222 11.54269 10547 ft 278 kts 39°
2026-04-30 09:29 44.76771 11.56105 10706 ft 302 kts 39°
2026-04-30 09:30 44.78431 11.58071 10886 ft 322 kts 39°
2026-04-30 09:30 44.80191 11.60124 11302 ft 333 kts 35°
2026-04-30 09:30 44.82295 11.61531 11878 ft 337 kts 14°
2026-04-30 09:30 44.84620 11.61995 12589 ft 339 kts
2026-04-30 09:31 44.86981 11.62171 13292 ft 341 kts
2026-04-30 09:31 44.89359 11.62297 13962 ft 344 kts
2026-04-30 09:31 44.91759 11.62425 14625 ft 347 kts
2026-04-30 09:31 44.94186 11.62571 15295 ft 350 kts
2026-04-30 09:32 44.96597 11.62728 15949 ft 353 kts
2026-04-30 09:32 44.99062 11.62900 16620 ft 356 kts
2026-04-30 09:32 45.01544 11.63078 17261 ft 359 kts
2026-04-30 09:32 45.04048 11.63261 17901 ft 361 kts
2026-04-30 09:33 45.06571 11.63446 18499 ft 364 kts
2026-04-30 09:33 45.09107 11.63634 19065 ft 368 kts
2026-04-30 09:33 45.11683 11.63825 19634 ft 371 kts
2026-04-30 09:33 45.14265 11.64015 20205 ft 373 kts
2026-04-30 09:34 45.16868 11.64207 20759 ft 376 kts
2026-04-30 09:34 45.19494 11.64396 21285 ft 379 kts
2026-04-30 09:34 45.22138 11.64586 21797 ft 381 kts
2026-04-30 09:34 45.24795 11.64775 22287 ft 384 kts
2026-04-30 09:35 45.27472 11.64967 22752 ft 387 kts
2026-04-30 09:35 45.30133 11.65159 23249 ft 389 kts
2026-04-30 09:35 45.32849 11.65355 23712 ft 391 kts
2026-04-30 09:35 45.35579 11.65553 24148 ft 394 kts
2026-04-30 09:36 45.38324 11.65752 24597 ft 396 kts
2026-04-30 09:36 45.41087 11.65953 25017 ft 398 kts
2026-04-30 09:36 45.43866 11.66154 25413 ft 401 kts
2026-04-30 09:36 45.46667 11.66358 25797 ft 403 kts
2026-04-30 09:37 45.49480 11.66562 26175 ft 406 kts
2026-04-30 09:37 45.52314 11.66768 26541 ft 408 kts
2026-04-30 09:37 45.55164 11.66977 26860 ft 411 kts
2026-04-30 09:37 45.57993 11.67184 27200 ft 414 kts
2026-04-30 09:38 45.60873 11.67394 27557 ft 415 kts
2026-04-30 09:38 45.63766 11.67605 27901 ft 417 kts
2026-04-30 09:38 45.66680 11.67788 28216 ft 419 kts
2026-04-30 09:38 45.69607 11.67942 28517 ft 421 kts
2026-04-30 09:39 45.72545 11.68087 28801 ft 424 kts
2026-04-30 09:39 45.75504 11.68235 29060 ft 426 kts
2026-04-30 09:39 45.78474 11.68388 29346 ft 428 kts
2026-04-30 09:39 45.81421 11.68544 29641 ft 429 kts
2026-04-30 09:40 45.84403 11.68705 29976 ft 429 kts
2026-04-30 09:40 45.87383 11.68866 30363 ft 427 kts
2026-04-30 09:40 45.90359 11.69026 30728 ft 427 kts
2026-04-30 09:40 45.93340 11.69098 31029 ft 427 kts 356°
2026-04-30 09:41 45.96281 11.68580 31355 ft 426 kts 348°
2026-04-30 09:41 45.98201 11.68008 31623 ft 425 kts 348°
2026-04-30 09:41 46.02056 11.66833 32065 ft 424 kts 348°
2026-04-30 09:41 46.03974 11.66256 32208 ft 425 kts 348°
2026-04-30 09:42 46.06879 11.65398 32463 ft 426 kts 349°
2026-04-30 09:42 46.10718 11.64285 32942 ft 423 kts 349°
2026-04-30 09:42 46.13602 11.63454 33264 ft 422 kts 349°
2026-04-30 09:42 46.15549 11.62894 33461 ft 422 kts 349°
2026-04-30 09:43 46.18396 11.62072 33711 ft 422 kts 349°
2026-04-30 09:43 46.21312 11.61227 33969 ft 423 kts 349°
2026-04-30 09:43 46.24153 11.60399 34242 ft 422 kts 349°
2026-04-30 09:43 46.27027 11.59560 34515 ft 421 kts 349°
2026-04-30 09:44 46.29905 11.58718 34775 ft 421 kts 349°
2026-04-30 09:44 46.32772 11.57879 35059 ft 420 kts 349°
2026-04-30 09:44 46.35635 11.57040 35316 ft 419 kts 349°
2026-04-30 09:44 46.38494 11.56202 35507 ft 420 kts 349°
2026-04-30 09:45 46.41367 11.55358 35750 ft 420 kts 349°
2026-04-30 09:45 46.44229 11.54517 36056 ft 418 kts 349°
2026-04-30 09:45 46.47075 11.53680 36264 ft 417 kts 349°
2026-04-30 09:45 46.49937 11.52837 36255 ft 421 kts 349°
2026-04-30 09:46 46.55691 11.51141 36268 ft 421 kts 349°
2026-04-30 09:46 46.61360 11.49465 36269 ft 416 kts 349°
2026-04-30 09:47 46.67020 11.47788 36275 ft 413 kts 349°
2026-04-30 09:47 46.72633 11.46059 36276 ft 412 kts 348°
2026-04-30 09:48 46.78227 11.44209 36274 ft 411 kts 348°
2026-04-30 09:48 46.83798 11.42367 36285 ft 410 kts 348°
2026-04-30 09:49 46.89373 11.40537 36280 ft 411 kts 349°
2026-04-30 09:49 46.94965 11.38700 36310 ft 413 kts 349°
2026-04-30 09:50 47.00602 11.37547 36312 ft 411 kts
2026-04-30 09:50 47.06335 11.37550 36318 ft 413 kts
2026-04-30 09:51 47.12095 11.37541 36314 ft 414 kts
2026-04-30 09:51 47.17860 11.37498 36331 ft 415 kts
2026-04-30 09:52 47.23604 11.37442 36323 ft 415 kts
2026-04-30 09:52 47.29372 11.37380 36317 ft 414 kts
2026-04-30 09:53 47.35114 11.37320 36320 ft 412 kts
2026-04-30 09:53 47.40839 11.37260 36324 ft 410 kts
2026-04-30 09:54 47.46529 11.37204 36328 ft 408 kts
2026-04-30 09:54 47.52175 11.37146 36329 ft 407 kts
2026-04-30 09:55 47.57843 11.37088 36323 ft 406 kts
2026-04-30 09:55 47.63494 11.37029 36330 ft 405 kts
2026-04-30 09:56 47.69139 11.36968 36335 ft 405 kts
2026-04-30 09:56 47.74771 11.36912 36341 ft 404 kts
2026-04-30 09:57 47.80390 11.36855 36349 ft 404 kts
2026-04-30 09:57 47.86015 11.36794 36341 ft 404 kts
2026-04-30 09:58 47.91608 11.36441 36348 ft 405 kts 359°
2026-04-30 09:58 47.97235 11.35908 36352 ft 405 kts 359°
2026-04-30 09:59 48.08515 11.34910 36347 ft 406 kts
2026-04-30 10:00 48.16991 11.34204 36346 ft 406 kts
2026-04-30 10:01 48.25416 11.33501 36359 ft 405 kts
2026-04-30 10:02 48.33869 11.32795 36363 ft 405 kts
2026-04-30 10:02 48.39492 11.32324 36372 ft 404 kts
2026-04-30 10:03 48.45111 11.31851 36385 ft 404 kts
2026-04-30 10:03 48.50720 11.31377 36397 ft 403 kts
2026-04-30 10:04 48.56326 11.30906 36396 ft 404 kts
2026-04-30 10:04 48.61931 11.30432 36396 ft 404 kts
2026-04-30 10:05 48.67548 11.29955 36395 ft 404 kts
2026-04-30 10:05 48.73115 11.29480 36400 ft 403 kts
2026-04-30 10:06 48.78720 11.29003 36413 ft 403 kts
2026-04-30 10:06 48.84323 11.28527 36406 ft 403 kts
2026-04-30 10:07 48.89916 11.28050 36409 ft 403 kts
2026-04-30 10:07 48.95514 11.27569 36412 ft 403 kts
2026-04-30 10:08 49.01112 11.27089 36402 ft 403 kts
2026-04-30 10:08 49.06712 11.26608 36413 ft 402 kts
2026-04-30 10:09 49.12281 11.26126 36417 ft 402 kts
2026-04-30 10:09 49.17873 11.25641 36422 ft 402 kts
2026-04-30 10:10 49.23462 11.25155 36426 ft 402 kts
2026-04-30 10:10 49.29049 11.24669 36427 ft 401 kts
2026-04-30 10:11 49.34579 11.24185 36429 ft 400 kts
2026-04-30 10:11 49.40138 11.23702 36432 ft 400 kts
2026-04-30 10:12 49.45688 11.23219 36431 ft 399 kts
2026-04-30 10:12 49.51233 11.22732 36427 ft 399 kts
2026-04-30 10:13 49.56777 11.22328 36432 ft 398 kts
2026-04-30 10:13 49.62304 11.22369 36438 ft 397 kts
2026-04-30 10:14 49.67826 11.22451 36430 ft 397 kts
2026-04-30 10:14 49.76107 11.22489 36418 ft 395 kts
2026-04-30 10:15 49.81615 11.22485 36428 ft 396 kts
2026-04-30 10:15 49.87126 11.22504 36434 ft 395 kts
2026-04-30 10:16 49.92613 11.22542 36437 ft 397 kts
2026-04-30 10:17 50.00915 11.22570 36445 ft 397 kts
2026-04-30 10:17 50.09231 11.22630 36451 ft 400 kts
2026-04-30 10:18 50.14778 11.22665 36439 ft 398 kts
2026-04-30 10:19 50.23070 11.22703 36449 ft 399 kts
2026-04-30 10:19 50.28585 11.22719 36458 ft 395 kts
2026-04-30 10:20 50.34041 11.22786 36448 ft 389 kts
2026-04-30 10:20 50.42196 11.23156 36471 ft 390 kts
2026-04-30 10:21 50.47621 11.23535 36474 ft 395 kts
2026-04-30 10:21 50.53112 11.23947 36469 ft 395 kts
2026-04-30 10:22 50.58596 11.24350 36489 ft 395 kts
2026-04-30 10:22 50.64120 11.24755 36474 ft 397 kts
2026-04-30 10:23 50.69661 11.25080 36477 ft 398 kts
2026-04-30 10:23 50.75189 11.25493 36476 ft 398 kts
2026-04-30 10:24 50.80734 11.25919 36491 ft 399 kts
2026-04-30 10:24 50.86288 11.26317 36475 ft 399 kts
2026-04-30 10:25 50.91788 11.26696 36466 ft 397 kts
2026-04-30 10:25 50.97304 11.27092 36476 ft 396 kts
2026-04-30 10:26 51.02810 11.27489 36480 ft 395 kts
2026-04-30 10:26 51.08298 11.27882 36487 ft 394 kts
2026-04-30 10:27 51.13778 11.28275 36490 ft 393 kts
2026-04-30 10:27 51.19218 11.28664 36488 ft 393 kts
2026-04-30 10:28 51.24683 11.29057 36485 ft 393 kts
2026-04-30 10:28 51.30144 11.29451 36486 ft 393 kts
2026-04-30 10:29 51.35612 11.29847 36484 ft 393 kts
2026-04-30 10:29 51.40163 11.30175 36494 ft 394 kts
2026-04-30 10:30 51.45636 11.30572 36495 ft 394 kts
2026-04-30 10:30 51.51118 11.30976 36515 ft 394 kts
2026-04-30 10:31 51.56571 11.31389 36499 ft 388 kts
2026-04-30 10:31 51.61925 11.31780 36496 ft 385 kts
2026-04-30 10:32 51.67329 11.32180 36523 ft 391 kts
2026-04-30 10:32 51.72784 11.32577 36506 ft 389 kts
2026-04-30 10:33 51.78122 11.32967 36495 ft 386 kts
2026-04-30 10:33 51.83532 11.33368 36514 ft 392 kts
2026-04-30 10:34 51.88978 11.33768 36502 ft 388 kts
2026-04-30 10:34 51.94324 11.34160 36494 ft 383 kts
2026-04-30 10:35 51.99699 11.34560 36515 ft 391 kts
2026-04-30 10:35 52.05156 11.34967 36505 ft 389 kts
2026-04-30 10:36 52.10530 11.34893 36501 ft 385 kts
2026-04-30 10:36 52.15893 11.34506 36502 ft 385 kts
2026-04-30 10:37 52.21242 11.34131 36508 ft 385 kts
2026-04-30 10:37 52.26570 11.33790 36507 ft 385 kts
2026-04-30 10:38 52.31922 11.33468 36507 ft 385 kts
2026-04-30 10:38 52.37283 11.33150 36500 ft 385 kts
2026-04-30 10:39 52.42619 11.32832 36491 ft 386 kts
2026-04-30 10:39 52.48052 11.32510 36525 ft 394 kts
2026-04-30 10:40 52.53521 11.32179 36500 ft 390 kts
2026-04-30 10:40 52.58916 11.31851 36500 ft 388 kts
2026-04-30 10:41 52.64372 11.31528 36518 ft 395 kts
2026-04-30 10:41 52.69836 11.31192 36491 ft 390 kts
2026-04-30 10:42 52.75249 11.30863 36500 ft 390 kts
2026-04-30 10:42 52.80685 11.30536 36515 ft 394 kts
2026-04-30 10:43 52.86147 11.30198 36499 ft 391 kts
2026-04-30 10:43 52.91558 11.29864 36491 ft 388 kts
2026-04-30 10:44 52.97021 11.29534 36520 ft 395 kts
2026-04-30 10:44 53.02463 11.29197 36498 ft 392 kts
2026-04-30 10:45 53.07882 11.28860 36492 ft 389 kts
2026-04-30 10:45 53.13341 11.28540 36518 ft 394 kts
2026-04-30 10:46 53.18803 11.28460 36496 ft 391 kts
2026-04-30 10:46 53.24222 11.28451 36490 ft 388 kts
2026-04-30 10:47 53.29627 11.28424 36519 ft 394 kts
2026-04-30 10:47 53.35113 11.28371 36505 ft 392 kts
2026-04-30 10:48 53.40547 11.28311 36489 ft 389 kts
2026-04-30 10:48 53.45965 11.28255 36509 ft 392 kts
2026-04-30 10:49 53.51449 11.28197 36514 ft 394 kts
2026-04-30 10:49 53.56914 11.28136 36494 ft 391 kts
2026-04-30 10:50 53.62311 11.28078 36497 ft 391 kts
2026-04-30 10:50 53.67791 11.28021 36521 ft 396 kts
2026-04-30 10:51 53.73277 11.27958 36499 ft 391 kts
2026-04-30 10:51 53.78702 11.27897 36492 ft 388 kts
2026-04-30 10:52 53.84150 11.27839 36523 ft 394 kts
2026-04-30 10:52 53.89627 11.27778 36510 ft 391 kts
2026-04-30 10:53 53.95013 11.27718 36505 ft 388 kts
2026-04-30 10:53 54.00382 11.27657 36508 ft 384 kts
2026-04-30 10:54 54.05721 11.27599 36504 ft 383 kts
2026-04-30 10:54 54.11043 11.27540 36514 ft 382 kts
2026-04-30 10:55 54.16366 11.27480 36516 ft 382 kts
2026-04-30 10:55 54.21703 11.27420 36517 ft 384 kts
2026-04-30 10:56 54.27033 11.27361 36519 ft 387 kts
2026-04-30 10:56 54.32449 11.27298 36518 ft 389 kts
2026-04-30 10:57 54.37886 11.27235 36513 ft 392 kts
2026-04-30 10:57 54.43350 11.27171 36510 ft 394 kts
2026-04-30 10:58 54.48860 11.27104 36505 ft 396 kts
2026-04-30 10:58 54.54364 11.27041 36505 ft 395 kts
2026-04-30 10:59 54.59856 11.26502 36509 ft 396 kts 355°
2026-04-30 10:59 54.65286 11.25197 36504 ft 395 kts 355°
2026-04-30 11:00 54.70727 11.23870 36507 ft 394 kts 355°
2026-04-30 11:00 54.76149 11.22562 36499 ft 393 kts 355°
2026-04-30 11:01 54.81558 11.21267 36491 ft 393 kts 355°
2026-04-30 11:01 54.87028 11.19960 36520 ft 401 kts 355°
2026-04-30 11:02 54.92544 11.18636 36503 ft 398 kts 355°
2026-04-30 11:02 54.98005 11.17321 36488 ft 394 kts 355°
2026-04-30 11:03 55.03458 11.16008 36511 ft 399 kts 355°
2026-04-30 11:04 55.11680 11.14019 36499 ft 397 kts 355°
2026-04-30 11:04 55.17139 11.12694 36491 ft 395 kts 355°
2026-04-30 11:05 55.22609 11.11363 36516 ft 400 kts 355°
2026-04-30 11:05 55.28127 11.10015 36503 ft 399 kts 354°
2026-04-30 11:06 55.33609 11.08674 36490 ft 396 kts 354°
2026-04-30 11:06 55.39080 11.07331 36510 ft 399 kts 354°
2026-04-30 11:07 55.44569 11.05978 36513 ft 400 kts 354°
2026-04-30 11:07 55.50058 11.04621 36495 ft 397 kts 354°
2026-04-30 11:08 55.55522 11.03267 36492 ft 398 kts 354°
2026-04-30 11:08 55.61060 11.01895 36510 ft 404 kts 354°
2026-04-30 11:09 55.66601 11.00513 36486 ft 399 kts 354°
2026-04-30 11:09 55.72096 10.99140 36488 ft 398 kts 354°
2026-04-30 11:10 55.77626 10.97758 36507 ft 403 kts 354°
2026-04-30 11:10 55.83119 10.96375 36486 ft 399 kts 354°
2026-04-30 11:11 55.88613 10.94990 36484 ft 400 kts 354°
2026-04-30 11:11 55.94169 10.93587 36500 ft 407 kts 354°
2026-04-30 11:12 55.99812 10.92154 36487 ft 410 kts 354°
2026-04-30 11:12 56.05462 10.90715 36482 ft 411 kts 353°
2026-04-30 11:13 56.11086 10.89280 36486 ft 411 kts 353°
2026-04-30 11:13 56.16776 10.89097 36480 ft 409 kts
2026-04-30 11:14 56.22356 10.91067 36478 ft 408 kts 12°
2026-04-30 11:14 56.27933 10.93130 36488 ft 408 kts 12°
2026-04-30 11:15 56.33496 10.95152 36484 ft 408 kts 11°
2026-04-30 11:15 56.39019 10.97138 36479 ft 407 kts 11°
2026-04-30 11:16 56.43672 10.98807 36477 ft 406 kts 11°
2026-04-30 11:16 56.50112 11.01120 36477 ft 405 kts 11°
2026-04-30 11:17 56.54714 11.02779 36478 ft 405 kts 11°
2026-04-30 11:17 56.60246 11.04778 36479 ft 405 kts 11°
2026-04-30 11:18 56.65773 11.06782 36477 ft 404 kts 11°
2026-04-30 11:18 56.74058 11.09797 36476 ft 404 kts 11°
2026-04-30 11:19 56.79575 11.11812 36479 ft 404 kts 11°
2026-04-30 11:19 56.85055 11.13819 36476 ft 404 kts 11°
2026-04-30 11:20 56.90578 11.15847 36479 ft 404 kts 11°
2026-04-30 11:20 56.96099 11.17883 36477 ft 405 kts 11°
2026-04-30 11:21 57.01628 11.19928 36479 ft 405 kts 11°
2026-04-30 11:21 57.07147 11.21974 36477 ft 405 kts 11°
2026-04-30 11:22 57.12678 11.24030 36478 ft 405 kts 11°
2026-04-30 11:22 57.18169 11.26075 36467 ft 405 kts 11°
2026-04-30 11:23 57.23786 11.26821 36474 ft 405 kts
2026-04-30 11:24 57.32244 11.26873 36458 ft 405 kts
2026-04-30 11:24 57.37895 11.26954 36461 ft 405 kts
2026-04-30 11:25 57.46357 11.27140 36461 ft 406 kts
2026-04-30 11:26 57.57621 11.27416 36460 ft 406 kts
2026-04-30 11:26 57.63265 11.27555 36459 ft 406 kts
2026-04-30 11:27 57.68907 11.27694 36460 ft 405 kts
2026-04-30 11:27 57.74554 11.27833 36452 ft 405 kts
2026-04-30 11:28 57.83018 11.28039 36452 ft 405 kts
2026-04-30 11:29 57.88657 11.28178 36451 ft 405 kts
2026-04-30 11:29 57.97100 11.28391 36444 ft 404 kts
2026-04-30 11:30 58.05496 11.28601 36434 ft 404 kts
2026-04-30 11:31 58.11129 11.28739 36446 ft 404 kts
2026-04-30 11:31 58.16744 11.28883 36436 ft 404 kts
2026-04-30 11:32 58.22372 11.29027 36433 ft 405 kts
2026-04-30 11:32 58.27986 11.29169 36435 ft 405 kts
2026-04-30 11:33 58.36465 11.29383 36429 ft 406 kts
2026-04-30 11:33 58.39295 11.29457 36130 ft 405 kts
2026-04-30 11:33 58.42084 11.29529 35835 ft 398 kts
2026-04-30 11:34 58.44841 11.29600 35428 ft 394 kts
2026-04-30 11:34 58.47567 11.29669 35046 ft 390 kts
2026-04-30 11:34 58.50269 11.29738 34658 ft 387 kts
2026-04-30 11:34 58.52953 11.29807 34271 ft 383 kts
2026-04-30 11:35 58.55608 11.29875 33891 ft 380 kts
2026-04-30 11:35 58.58239 11.29942 33501 ft 377 kts
2026-04-30 11:35 58.60847 11.30010 33115 ft 374 kts
2026-04-30 11:35 58.63446 11.30077 32731 ft 371 kts
2026-04-30 11:36 58.65987 11.30142 32353 ft 369 kts
2026-04-30 11:36 58.68545 11.30209 31982 ft 366 kts
2026-04-30 11:36 58.71084 11.30275 31615 ft 364 kts
2026-04-30 11:36 58.73608 11.30341 31248 ft 361 kts
2026-04-30 11:37 58.76110 11.30406 30872 ft 359 kts
2026-04-30 11:37 58.78603 11.30471 30505 ft 356 kts
2026-04-30 11:37 58.81080 11.30536 30143 ft 354 kts
2026-04-30 11:37 58.83532 11.30600 29775 ft 352 kts
2026-04-30 11:38 58.85979 11.30663 29397 ft 349 kts
2026-04-30 11:38 58.88403 11.30726 29023 ft 347 kts
2026-04-30 11:38 58.90806 11.30789 28657 ft 344 kts
2026-04-30 11:38 58.93188 11.30851 28290 ft 342 kts
2026-04-30 11:39 58.95569 11.30914 27928 ft 340 kts
2026-04-30 11:39 58.97925 11.30975 27559 ft 338 kts
2026-04-30 11:39 59.00268 11.31035 27200 ft 336 kts
2026-04-30 11:39 59.02598 11.31097 26840 ft 334 kts
2026-04-30 11:40 59.04881 11.31158 26491 ft 331 kts
2026-04-30 11:40 59.07176 11.31217 26136 ft 329 kts 360°
2026-04-30 11:40 59.09457 11.31275 25786 ft 327 kts 360°
2026-04-30 11:40 59.11726 11.31333 25439 ft 325 kts 360°
2026-04-30 11:41 59.13973 11.31393 25087 ft 322 kts 360°
2026-04-30 11:41 59.16212 11.31454 24743 ft 320 kts 360°
2026-04-30 11:41 59.18431 11.31625 24389 ft 319 kts
2026-04-30 11:41 59.20581 11.32742 24020 ft 319 kts 15°
2026-04-30 11:42 59.22685 11.34107 23661 ft 318 kts 16°
2026-04-30 11:42 59.24779 11.35482 23309 ft 316 kts 16°
2026-04-30 11:42 59.26862 11.36837 22967 ft 314 kts 16°
2026-04-30 11:42 59.28931 11.38167 22626 ft 311 kts 16°
2026-04-30 11:43 59.30958 11.39460 22299 ft 310 kts 15°
2026-04-30 11:43 59.33028 11.40772 21961 ft 307 kts 15°
2026-04-30 11:43 59.35056 11.42055 21639 ft 306 kts 15°
2026-04-30 11:43 59.37073 11.43331 21311 ft 303 kts 15°
2026-04-30 11:44 59.39070 11.44596 20992 ft 301 kts 15°
2026-04-30 11:44 59.41033 11.45843 20675 ft 299 kts 15°
2026-04-30 11:44 59.43007 11.47093 20365 ft 296 kts 15°
2026-04-30 11:44 59.44987 11.48345 20053 ft 294 kts 15°
2026-04-30 11:45 59.46903 11.49556 19742 ft 292 kts 15°
2026-04-30 11:45 59.48827 11.50771 19435 ft 290 kts 15°
2026-04-30 11:45 59.50765 11.51767 19125 ft 287 kts
2026-04-30 11:45 59.52752 11.51725 18913 ft 286 kts 356°
2026-04-30 11:46 59.54764 11.51481 18662 ft 292 kts 355°
2026-04-30 11:46 59.56804 11.51209 18419 ft 295 kts 355°
2026-04-30 11:46 59.58838 11.50937 18179 ft 291 kts 355°
2026-04-30 11:46 59.60858 11.50671 17864 ft 289 kts 355°
2026-04-30 11:47 59.62865 11.50410 17549 ft 287 kts 355°
2026-04-30 11:47 59.64854 11.50155 17237 ft 285 kts 355°
2026-04-30 11:47 59.66824 11.49903 16926 ft 283 kts 355°
2026-04-30 11:47 59.68785 11.49656 16608 ft 281 kts 355°
2026-04-30 11:48 59.70703 11.49415 16311 ft 279 kts 355°
2026-04-30 11:48 59.72668 11.49168 16001 ft 278 kts 355°
2026-04-30 11:48 59.74565 11.48930 15699 ft 276 kts 355°
2026-04-30 11:48 59.76479 11.48689 15384 ft 275 kts 355°
2026-04-30 11:49 59.78393 11.48448 15080 ft 274 kts 355°
2026-04-30 11:49 59.80291 11.48209 14778 ft 272 kts 355°
2026-04-30 11:49 59.82175 11.47972 14477 ft 271 kts 355°
2026-04-30 11:49 59.84056 11.47735 14170 ft 270 kts 355°
2026-04-30 11:50 59.85929 11.47498 13865 ft 269 kts 355°
2026-04-30 11:50 59.87794 11.47262 13578 ft 267 kts 355°
2026-04-30 11:50 59.89640 11.47029 13272 ft 265 kts 355°
2026-04-30 11:50 59.91483 11.46797 12959 ft 265 kts 355°
2026-04-30 11:51 59.93292 11.46566 12666 ft 264 kts 355°
2026-04-30 11:51 59.95124 11.46333 12373 ft 263 kts 355°
2026-04-30 11:51 59.96950 11.46101 12068 ft 262 kts 355°
2026-04-30 11:51 59.98765 11.45872 11791 ft 261 kts 355°
2026-04-30 11:52 60.00578 11.45643 11479 ft 260 kts 355°
2026-04-30 11:52 60.02383 11.45414 11190 ft 259 kts 355°
2026-04-30 11:52 60.04183 11.45183 10809 ft 261 kts 355°
2026-04-30 11:52 60.06032 11.44946 10305 ft 268 kts 355°
2026-04-30 11:53 60.07880 11.44710 10112 ft 264 kts 355°
2026-04-30 11:53 60.09690 11.44482 9919 ft 259 kts 355°
2026-04-30 11:53 60.11470 11.44251 9611 ft 259 kts 355°
2026-04-30 11:53 60.13266 11.44021 9329 ft 259 kts 355°
2026-04-30 11:54 60.15066 11.43791 9036 ft 259 kts 355°
2026-04-30 11:54 60.16860 11.43562 8771 ft 257 kts 355°
2026-04-30 11:54 60.18646 11.43329 8483 ft 257 kts 355°
2026-04-30 11:54 60.20439 11.43099 8176 ft 258 kts 355°
2026-04-30 11:55 60.22229 11.42867 7891 ft 257 kts 355°
2026-04-30 11:55 60.24013 11.42637 7615 ft 256 kts 355°
2026-04-30 11:55 60.25785 11.42408 7329 ft 255 kts 355°
2026-04-30 11:55 60.27562 11.42182 7028 ft 256 kts 355°
2026-04-30 11:56 60.29313 11.41959 6767 ft 254 kts 355°
2026-04-30 11:56 60.31069 11.41732 6518 ft 252 kts 355°
2026-04-30 11:56 60.32815 11.41504 6252 ft 251 kts 355°
2026-04-30 11:56 60.34544 11.41282 6099 ft 243 kts 355°
2026-04-30 11:57 60.36180 11.41073 6014 ft 228 kts 355°
2026-04-30 11:57 60.37715 11.40877 5916 ft 213 kts 355°
2026-04-30 11:57 60.39140 11.40699 5823 ft 198 kts 355°
2026-04-30 11:57 60.40457 11.40340 5646 ft 184 kts 335°
2026-04-30 11:58 60.41374 11.38761 5580 ft 169 kts 302°
2026-04-30 11:58 60.41764 11.36562 5495 ft 169 kts 276°
2026-04-30 11:58 60.41689 11.34212 5359 ft 166 kts 265°
2026-04-30 11:58 60.41522 11.31901 5165 ft 165 kts 264°
2026-04-30 11:59 60.41352 11.29643 4984 ft 164 kts 264°
2026-04-30 11:59 60.41181 11.27364 4820 ft 163 kts 264°
2026-04-30 11:59 60.41006 11.25091 4639 ft 163 kts 264°
2026-04-30 11:59 60.40835 11.22817 4477 ft 164 kts 262°
2026-04-30 12:00 60.40298 11.20874 4415 ft 165 kts 216°
2026-04-30 12:00 60.39227 11.19898 4248 ft 172 kts 207°
2026-04-30 12:00 60.38137 11.18942 4029 ft 166 kts 204°
2026-04-30 12:00 60.37101 11.18181 3792 ft 153 kts 201°
2026-04-30 12:01 60.36088 11.17538 3602 ft 154 kts 200°
2026-04-30 12:01 60.35045 11.16907 3395 ft 157 kts 199°
2026-04-30 12:01 60.33967 11.16287 3215 ft 175 kts 198°
2026-04-30 12:01 60.32647 11.15530 2909 ft 207 kts 197°
2026-04-30 12:02 60.31292 11.14760 2663 ft 196 kts 198°
2026-04-30 12:02 60.30028 11.13956 2378 ft 184 kts 198°
2026-04-30 12:02 60.29233 11.13539 2284 ft 175 kts 197°
2026-04-30 12:02 60.28078 11.12815 1974 ft 168 kts 195°
2026-04-30 12:03 60.26976 11.12253 1780 ft 165 kts 194°
2026-04-30 12:03 60.24899 11.11056 1341 ft 147 kts 196°
2026-04-30 12:03 60.23933 11.10500 1161 ft 144 kts 195°
2026-04-30 12:04 60.22937 11.09925 985 ft 153 kts 197°
2026-04-30 12:04 60.21904 11.09333 776 ft 154 kts 195°
2026-04-30 12:04 60.20909 11.08764 680 ft 131 kts 195°
2026-04-30 12:04 60.20242 11.08378 676 ft 68 kts 196°
2026-04-30 12:05 60.19975 11.08309 674 ft 23 kts 169°
2026-04-30 12:05 60.19877 11.08554 677 ft 22 kts 105°
2026-04-30 12:05 60.19844 11.08785 677 ft 16 kts 106°
2026-04-30 12:05 60.19814 11.08996 680 ft 15 kts 106°
2026-04-30 12:06 60.19784 11.09200 682 ft 16 kts 106°
2026-04-30 12:06 60.19754 11.09410 677 ft 15 kts 106°
2026-04-30 12:06 60.19726 11.09612 681 ft 15 kts 106°
2026-04-30 12:06 60.19738 11.09789 680 ft 10 kts 61°
2026-04-30 12:07 60.19733 11.09925 679 ft 10 kts 106°
2026-04-30 12:07 60.19721 11.10005 684 ft 1 kts 106°
2026-04-30 12:07 60.19721 11.10006 684 ft 0 kts 106°